Dick's Brentwood Run & Walk
West Los Angeles, CA
May 28, 2011
     
Results by results@resultsbyprimetime.com  
Software by ChuckScore  
     
  State/
Place Name Bib Gun Tag Pace Sex Age City County
1 Kennedy,Sean 1061 15:36.6 15:35.5 5:02 M 27 Venice CA
2 Bland,Andrew 1235 15:55.4 15:54.5 5:08 M 17 Pacific Palisades CA
3 De La Vega,Luis 1106 16:01.0 16:00.2 5:10 M 25 San Diego CA
4 Steyvers,Mark 861 16:06.5 16:05.5 5:11 M 41 Irvine CA
5 Alcantar,Angel 1213 16:28.2 16:26.9 5:18 M 17 Pacoima CA
6 Megeff,Jon 267 16:33.2 16:31.7 5:20 M 47 Rancho Palos Verdes CA
7 Ruiz,Miguel 1221 16:36.8 16:35.6 5:21 M 31 Pacoima CA
8 Kuciejczyk,David 1332 16:51.4 16:49.3 5:26 M 20 Los Angeles CA
9 Sanchez,Martin 1215 16:53.8 16:51.9 5:26 M 38 Los Angeles CA
10 Avila,Flavio 1436 17:00.5 16:58.8 5:29 M 21 Los Angeles CA
11 Curran,Thomas 86 17:02.3 17:00.5 5:29 M 18 Los Angeles CA
12 Cortez,Michael 1132 17:03.7 17:00.6 5:29 M 31 Redondo Beach CA
13 Gieseker,Mark 150 17:11.3 17:10.0 5:32 M 20 Los Angeles CA
14 Alburez,Karla 1430 17:11.7 17:11.8 5:33 F 25 Los Angeles CA
15 Bowden,Nicholas 1220 17:12.1 17:12.1 5:33 M 39 Los Angeles CA
16 Gust,Rich 1530 17:15.5 17:13.8 5:33 M 52 Hermosa Beach CA
17 Luevano,Terrence 1623 17:16.7 17:15.0 5:34 M 16 Los Angeles CA
18 Reisenfeld,Bruce Gary 8 17:19.4 17:16.9 5:34 M 35
19 Bryant,Jeff 517 17:21.0 17:18.9 5:35 M 44 Manhattan Beach CA
20 Cappiello,Daniel 1511 17:23.2 17:22.0 5:36 M 40 Santa Monica CA
21 Thompson,Alex 1128 17:25.5 17:23.6 5:37 M 31 Los Angeles CA
22 Fischer,Tania 133 17:27.6 17:26.9 5:38 F 45 Santa Monica CA
23 Dempsey Corbe,Graham 1414 17:39.6 17:36.8 5:41 M 31 Austin TX
24 Campbell,Dale 59 17:45.1 17:42.2 5:43 M 57 Huntington Beach CA
25 Garabedian,Alexander 148 17:46.7 17:45.3 5:44 M 19 Los Angeles CA
26 Sacco,Tyson 1608 17:47.4 17:45.6 5:44 M 37 Venice CA
27 Higley,Nathalie 633 17:47.2 17:46.3 5:44 F 41 Redondo Beach CA
28 Villegas,Eduardo 889 17:47.7 17:46.8 5:44 M 35 Alhambra CA
29 Shalvarjian,Mark 1728 17:55.1 17:47.2 5:44 M 48 Manhattan Beach CA
30 Mead,Andrew 1103 17:50.0 17:48.4 5:45 M 15 Pacific Palisades CA
31 Paris,Richard 1622 17:51.4 17:49.5 5:45 M 48 Trabuco Canyon CA
32 Schumm,Adrienne 839 17:50.5 17:49.6 5:45 F 25 Beverly Hills CA
33 Murphy,Brian 754 17:56.4 17:50.3 5:45 M 28 Los Angeles CA
34 Atkinson,Alison 481 17:51.5 17:50.4 5:45 F 44 Manhattan Beach CA
35 Courtney,Jake 82 17:53.5 17:50.5 5:45 M 48 Los Angeles CA
36 Tobolowsky,William 1589 17:51.9 17:51.0 5:46 M 17 Studio City CA
37 Huss,Eric 654 20:08.4 17:51.1 5:46 M 43 Glendora CA
38 Alder,Simeon 1735 17:54.0 17:52.5 5:46 M 38 South Bend IN
39 Leetch,Kirsten 237 17:59.2 17:58.7 5:48 F 45 Redondo Beach CA
40 Deadrick,Matthew 96 18:06.8 18:04.1 5:50 M 20 Los Angeles CA
41 Warsuma,Jayson 1125 18:10.9 18:07.5 5:51 M 28 Los Angeles CA
42 Wu,Cambria 921 18:11.3 18:09.3 5:51 F 32 Torrance CA
43 Hutchen,Radell 658 18:18.0 18:14.2 5:53 M 48 Los Angeles CA
44 Rosenfeld,Jack 821 18:18.9 18:14.7 5:53 M 31 Los Angeles CA
45 Finer,Carl 1633 18:19.7 18:16.3 5:54 M 29 Los Angeles CA
46 Hernandez,Liliana 465 18:19.4 18:18.3 5:54 F 23 Glendale CA
47 Powers,Melanie 804 18:25.4 18:23.5 5:56 F 18 Newport Beach CA
48 Ososky,Ryan 1563 18:26.4 18:23.8 5:56 M 31 Los Angeles CA
49 Gutierrez,Alfredo 1706 18:26.5 18:24.6 5:56 M 48 South Gate CA
50 Coulibaly,Meredith 548 18:28.3 18:25.0 5:56 F 31 Los Angeles CA
51 Empfield,Dan 1521 18:28.0 18:26.4 5:57 M 54 Valyermo CA
52 Foote,David 1617 18:36.3 18:32.6 5:59 M 44 Los Angeles CA
53 Fricke,Therese 1019 18:39.7 18:38.7 6:01 F 38 Santa Monica CA
54 Richardson,Debbie 346 18:41.1 18:39.5 6:01 F 48 Palos Verdes Estates CA
55 Dee,Jenna 99 18:46.5 18:45.7 6:03 F 37 Santa Monica CA
56 Castaneda,Maria 1007 18:48.7 18:47.5 6:04 F 25 Los Angeles CA
57 Appell,Christine 1500 18:53.6 18:51.3 6:05 F 32 Huntington Beach CA
58 Fuligni,Benjamin 601 19:00.1 18:53.2 6:06 M 14 Los Angeles CA
59 Cunningham,Maribeth 85 19:00.9 18:54.6 6:06 F 28 Santa Monica CA
60 Gowen,Simqn 1051 18:59.1 18:55.7 6:06 M 43 Santa Monica CA
61 Guh,Kevin 1326 19:05.0 18:56.8 6:07 M 17 Santa Monica CA
62 Velasco,Efrain 434 19:00.6 18:57.5 6:07 M 26 Los Angeles CA
63 Trajkovski,Spase 1098 19:00.7 18:58.9 6:07 M 30 Los Angeles CA
64 Anderson,Emily 18 19:03.4 19:01.0 6:08 F 34 El Segundo CA
65 Wang,Jason 1324 19:04.0 19:01.2 6:08 M 34 Temple City CA
66 Merton,Gabriel 269 19:08.1 19:05.0 6:09 M 32 Los Angeles CA
67 White,Jessica 901 19:10.0 19:07.3 6:10 F 35 Malibu CA
68 Silber,J 1437 19:34.6 19:09.7 6:11 M 47 Santa Monica CA
69 Hughes,Curtis 960 19:12.6 19:10.5 6:11 M 45 Irvine CA
70 Renner,Lance 341 19:17.1 19:11.3 6:11 M 32 Santa Monica CA
71 Villegas,Miguel 436 19:14.7 19:13.4 6:12 M 37 South Pasadena CA
72 Lincoln,Baberaham 1160 19:24.3 19:18.6 6:14 M 21 Los Angeles CA
73 Hernandez,Rocio 177 19:33.1 19:24.4 6:16 F 20 Van Nuys CA
74 Davis,Robert 559 19:30.5 19:27.1 6:17 M 41 Torrance CA
75 Sanchez,Julie 1407 19:35.9 19:32.1 6:18 F 35 Los Angeles CA
76 Helm,Kyle 626 19:40.4 19:37.7 6:20 M 21 Rancho Palos Verdes CA
77 Velazquez,Hugo 435 19:50.3 19:46.5 6:23 M 60 Hawthorne CA
78 Bacor,Choy 1503 19:59.4 19:57.1 6:26 M 35 Altadena CA
79 Sandler,Nathan 1649 20:05.3 20:01.9 6:28 M 50 Los Angeles CA
80 Joness,Wayne 203 20:05.6 20:02.7 6:28 M 49 Culver City CA
81 Ryan,Dennis 827 20:07.5 20:04.9 6:29 M 45 Long Beach CA
82 Whiting,Ian 1078 20:14.8 20:09.2 6:30 M 36 Santa Monica CA
83 Sumner,William K. 869 20:14.9 20:13.0 6:31 M 63 Newport Beach CA
84 Salinas,Lydia 6 20:16.7 20:13.9 6:32 F 51 Los Angeles CA
85 Byrnes,Paul 523 20:22.9 20:15.7 6:32 M 15 Santa Monica CA
86 Kanoff,Christine 1159 20:22.8 20:17.4 6:33 F 18 Pacific Palisades CA
87 Lin,James 241 20:27.2 20:18.7 6:33 M 38 Los Angeles CA
88 Frostbarnes,Eric 1441 20:28.2 20:21.0 6:34 M 42 Los Angeles CA
89 Wilson,Ann 453 24:07.3 20:21.4 6:34 F 34 South Pasadena CA
90 Burgos,John 56 20:26.0 20:21.9 6:34 M 34 Los Angeles CA
91 Panosian,Brian 7 20:28.3 20:26.6 6:36 M 45 Los Angeles CA
92 Plumb,Michael 1564 20:31.7 20:29.9 6:37 M 50 Carlsbad CA
93 Connedy,Gerry 1199 20:33.7 20:31.2 6:37 M 24 Burbank CA
94 Zepeda,Lily 928 20:34.5 20:31.5 6:37 F 29 Redondo Beach CA
95 Fichtel,Peter 1027 20:38.4 20:34.3 6:38 M 38 Los Angeles CA
96 Grethen,David 161 20:52.4 20:44.3 6:41 M 52 Hermosa Beach CA
97 Murray,Lucie 286 20:50.0 20:47.0 6:42 F 39 Los Angeles CA
98 Davidoff,Brian 1434 20:57.9 20:47.6 6:42 M 54 Los Angeles CA
99 Beck,Robert 1624 20:57.9 20:50.5 6:43 M 49 Whittier CA
100 Nitti,Gary 765 20:53.1 20:51.9 6:44 M 56 Calabasas CA
101 Arce,Steve 1502 20:55.7 20:52.3 6:44 M 46 Malibu CA
102 Arce,Harley 1501 20:57.2 20:53.7 6:44 F 19 Malibu CA
103 Silva,Diane 385 20:59.2 20:55.9 6:45 F 47 Manhattan Beach CA
104 Witler,Barry 906 21:01.5 20:56.6 6:45 M 60 La Crescenta CA
105 Notaro,Steve 769 20:58.6 20:56.7 6:45 M 63 Torrance CA
106 Hornstein,Steve 645 21:00.0 20:57.3 6:46 M 44 Tarzana CA
107 Loveless,John 1731 21:04.7 20:59.2 6:46 M 46 Los Angeles CA
108 Liu,Yayoi 245 21:07.7 21:06.5 6:49 F 54 Irvine CA
109 Thole,Margo 873 21:09.0 21:07.1 6:49 F 48 Manhattan Beach CA
110 Rodriguez,Matt 1236 21:13.0 21:08.7 6:49 M 39 Santa Monica CA
111 Kline,Neil 220 21:25.4 21:10.4 6:50 M 48 Glendale CA
112 Nelson,Christian 1329 21:15.6 21:11.0 6:50 M 14 Valencia CA
113 De Leon,Arnold 561 21:16.6 21:11.2 6:50 M 48 Sun Valley CA
114 Anderson,Richard 19 21:15.1 21:12.2 6:50 M 52 Hemet CA
115 Fanselow,Ian 585 21:22.8 21:14.9 6:51 M 14 Santa Monica CA
116 Moore,Joanna 744 21:21.3 21:16.2 6:52 F 43 Los Angeles CA
117 Murphy,Edward 755 21:24.3 21:17.2 6:52 M 48 Newport Beach CA
118 Voll,Edward 438 21:22.0 21:17.6 6:52 M 63 North Hollywood CA
119 Nelson,Erik 1330 21:23.0 21:18.4 6:52 M 43 Valencia CA
120 Fasano,Ed 130 21:25.7 21:23.2 6:54 M 57 Santa Monica CA
121 Corrales,Gretchen 1080 21:28.0 21:26.2 6:55 F 47 Los Angeles CA
122 Fujii,Ford 147 21:29.1 21:26.9 6:55 M 50 Irvine CA
123 David,Michaela 1084 21:29.3 21:27.0 6:55 F 43 Palos Verdes Peninsu CA
124 Korman,Jeremy 1025 21:44.6 21:31.1 6:57 M 48 Los Angeles CA
125 Pandzic,Eric 308 21:37.6 21:33.2 6:57 M 50 Redondo Beach CA
126 Petersen,Timothy 798 21:40.3 21:35.1 6:58 M 52 Culver City CA
127 Barry,Michael 488 22:09.0 21:37.8 6:59 M 23 Los Angeles CA
128 Kikuchi,Erika 216 21:46.8 21:39.9 6:59 F 32 Woodside CA
129 Pierola,Antonio 323 21:49.1 21:41.3 7:00 M 57 Alhambra CA
130 Collins,Lance 78 21:53.7 21:47.7 7:02 M 36 Long Beach CA
131 Sandoval,Bert 369 21:51.3 21:47.9 7:02 M 61 Covina CA
132 Kielman,Ryan 1741 22:34.5 21:49.4 7:02 M 35 Hermosa Beach CA
133 Savarese,Glenn 371 21:54.5 21:49.8 7:03 M 55 Los Angeles CA
134 Lespron,David 1545 21:57.7 21:50.9 7:03 M 27 Los Angeles CA
135 Lammerding,Eric 226 21:57.4 21:51.3 7:03 M 23 Los Angeles CA
136 Vincent,Mary 891 21:59.9 21:52.2 7:03 F 35 Santa Monica CA
137 Son,Jose 392 22:03.3 21:52.7 7:03 M 56 Van Nuys CA
138 Black,Armand 505 21:59.8 21:54.1 7:04 M 50 Los Angeles CA
139 Folsom,Lindsey 139 22:00.8 21:57.0 7:05 F 58 Venice CA
140 Abraham,Peter 1634 22:02.6 21:57.3 7:05 M 47 Los Angeles CA
141 Griffith,Huw 619 22:00.9 21:57.9 7:05 M 47 Santa Monica CA
142 Corrigan,Monica 79 22:01.6 21:58.0 7:05 F 46 Santa Monica CA
143 Bird,Karina 503 22:05.2 21:59.2 7:06 F 45 Redondo Beach CA
144 Del Greco,Peter 1044 22:04.5 22:00.2 7:06 M 56 Santa Monica CA
145 Beauregard,Michael 496 22:09.4 22:01.7 7:06 M 36 Los Angeles CA
146 Yoon,Clara 924 22:12.4 22:02.0 7:06 F 26 Northridge CA
147 Coutts,Duncan 1351 22:32.6 22:02.0 7:06 M 42 Toronto
148 Candler,Rob 60 22:20.1 22:03.4 7:07 M 34 Los Angeles CA
149 Dayton,Matt 94 22:13.9 22:03.9 7:07 M 26 La Crescenta CA
150 Leedom,Richard 1611 22:07.5 22:06.5 7:08 M 56 Woodland Hills CA
151 Cunningham,Benjamin 84 22:15.7 22:09.2 7:09 M 35 Santa Monica CA
152 Fu,Annie 1217 22:17.2 22:09.8 7:09 F 35 Fontana CA
153 Camacho,Oscar 1223 22:22.4 22:18.2 7:12 M 61 Los Angeles CA
154 Uribe,Janet 430 22:21.0 22:18.5 7:12 F 40 Pasadena CA
155 Beaty,Travis 495 22:37.4 22:19.3 7:12 M 28 Los Angeles CA
156 Rakunas,Anne 331 23:09.6 22:19.9 7:12 F 46 Santa Monica CA
157 Unknown, 1572 22:30.7 22:20.1 7:12 M 0
158 Stoeckli,Michael 401 22:21.7 22:20.2 7:12 M 49 Los Angeles CA
159 Eapen,Alex 118 22:26.4 22:21.1 7:13 M 36 Redondo Beach CA
160 Suzuki,Vic 870 22:35.1 22:24.1 7:14 M 46 La CA
161 Goodman,Dean 612 22:32.3 22:25.7 7:14 M 59 Venice CA
162 Walker,Paul 441 22:39.9 22:28.0 7:15 M 40 Huntington Beach CA
163 Irvin,Michael 660 23:00.0 22:31.4 7:16 M 44 Simi Valley CA
164 Rosenqvist,Aston 1653 22:40.1 22:32.7 7:16 M 16 Santa Monica CA
165 Ogata,Joe 299 22:37.1 22:32.7 7:16 M 62 Pacoima CA
166 Tann,Zach 409 22:41.7 22:34.5 7:17 M 34 Los Angeles CA
167 Kleiman,Ari 1093 22:43.4 22:35.6 7:17 M 52 Santa Monica CA
168 Farac,Rob 129 27:12.3 22:36.6 7:18 M 27 Los Angeles CA
169 Maurstad,Ron 1216 22:45.8 22:39.1 7:18 M 62 Cypress CA
170 Reitz,Bribn 1401 22:54.5 22:41.0 7:19 M 31 Granada Hills CA
171 Thomas,Dave 1123 22:44.3 22:41.6 7:19 M 45 Beverly Hills CA
172 Tilma,Tristan 929 22:45.3 22:41.7 7:19 M 27 Redondo Beach CA
173 Seeberger,Matt 842 23:01.3 22:49.8 7:22 M 51 Los Angeles CA
174 Mcgill,Ric 1137 23:13.6 22:52.4 7:23 M 44 Culver City CA
175 Wickens,Patrick 902 22:59.5 22:55.1 7:24 M 70 Redondo Beach CA
176 Gordon,Stephen 613 23:11.9 22:58.5 7:25 M 25 Los Angeles CA
177 Alonso,Jorge 1086 23:17.4 22:58.8 7:25 M 36 Los Angeles CA
178 Chizever,Andrew 71 27:39.6 23:03.7 7:26 M 27 Los Angeles CA
179 Matsumura,Wayne 717 23:15.6 23:05.0 7:27 M 48 Santa Monica CA
180 Houston,Melinda 648 23:18.1 23:06.4 7:27 F 34 Monrovia CA
181 Tully,Michael 1353 23:56.6 23:12.7 7:29 M 27 Culver City CA
182 Rodney,Jensen 1204 23:47.2 23:28.7 7:34 M 35 Beverly Hills CA
183 Green,Rich 159 23:37.6 23:29.5 7:35 M 42 Sherman Oaks CA
184 Rodriguez,Renee 1346 23:34.2 23:29.6 7:35 F 32 Santa Monica CA
185 Daigle,Dave 1638 23:47.9 23:31.5 7:35 M 48 Los Angeles CA
186 Silbert,Brian 1641 23:44.2 23:31.8 7:35 M 41 Los Angeles CA
187 Bahr,Cody 27 23:40.2 23:34.0 7:36 M 17 Calabasas CA
188 Stumbaugh,Julie 1753 23:51.6 23:35.3 7:37 F 25 Santa Monica CA
189 Chow,Jamie 1625 23:54.1 23:35.5 7:37 M 38 Alhambra CA
190 Javorsek,Dan 664 24:15.5 23:36.5 7:37 M 34 Edwards CA
191 Houston,Greg 647 25:25.2 23:37.3 7:37 M 40 Monrovia CA
192 Mazur,Steve 1350 24:09.0 23:37.8 7:37 M 33 Los Angeles CA
193 Miles,Kevin 733 23:49.1 23:38.8 7:38 M 52 Hawthorne CA
194 Kukuchka,Mike 682 23:43.7 23:39.8 7:38 M 56 Lake Balboa CA
195 Vincent,Christopher 890 23:51.7 23:43.9 7:39 M 42 Santa Monica CA
196 Toh,M. Rayyan 1590 23:59.7 23:45.0 7:40 M 23 Pasadena CA
197 Keramidas,Peter 675 24:00.9 23:45.2 7:40 M 45 Los Angeles CA
198 Goff,Michael 1647 24:00.0 23:45.2 7:40 M 37 Santa Monica CA
199 Sais,Ed 361 24:08.8 23:46.2 7:40 M 39 Santa Monica CA
200 Andrade,Sierra 1147 23:53.3 23:47.1 7:40 F 12 Manhattan Beach CA
201 Shunn Williams,April 378 24:05.6 23:48.8 7:41 F 33 Los Angeles CA
202 Reifman,Steve 1005 23:58.6 23:53.8 7:43 M 41 Santa Monica CA
203 Kunin,Louis 1344 24:07.5 23:55.3 7:43 M 9 Beverly Hills CA
204 Daly,Jeff 1631 24:13.7 23:58.1 7:44 M 41 Los Angeles CA
205 Hubbard,Gail 190 24:14.7 23:59.2 7:44 F 45 Glendale CA
206 Yaroslavsky,Zen 1333 24:23.7 24:01.9 7:45 M 42
207 Soriano,Aldrin 1112 24:16.0 24:06.2 7:47 M 27 Pacoima CA
208 Jacob,Perry 662 24:18.1 24:07.7 7:47 M 57 Winnetka CA
209 Lee,Eric 233 24:29.3 24:10.1 7:48 M 43 Santa Monica CA
210 Seal,Sara 1576 24:24.8 24:16.4 7:50 F 35 Los Angeles CA
211 Tye,Stephen 428 24:34.6 24:17.3 7:50 M 22 Los Angeles CA
212 Lee,Ryan 235 24:41.9 24:22.1 7:52 M 8 Santa Monica CA
213 Lee,Kole 234 24:42.3 24:23.0 7:52 M 8 Santa Monica CA
214 Hasan,Craig 1748 24:40.2 24:24.0 7:52 M 48 Glendale CA
215 Culbertson,Gallien 1420 26:12.8 24:25.2 7:53 M 21 R.P.V. CA
216 Mornaka,Andrew 1226 24:32.0 24:25.9 7:53 M 31 Littlerock CA
217 Hill,Ron 1411 24:34.2 24:27.6 7:53 M 55 Woodland Hills CA
218 Lazer,Gary 689 24:53.9 24:30.0 7:54 M 54 Santa Monica CA
219 Chandler,Keith 1643 24:36.6 24:30.7 7:54 M 32 Long Beach CA
220 Sapienza,Dan 829 24:54.5 24:31.2 7:55 M 37 North Hollywood CA
221 Minami-valdivia,Natalie 736 24:38.9 24:31.4 7:55 F 39 Granada Hills CA
222 Rahtz,Andrew 808 24:50.4 24:32.4 7:55 M 31 Phoenix AZ
223 Leedom,Allegra 1612 24:35.2 24:33.7 7:55 F 16 Woodland Hills CA
224 Provencher,Todd 328 24:46.0 24:35.3 7:56 M 37 Los Angeles CA
225 Ramberg,Brad 809 24:50.7 24:38.1 7:57 M 47 Los Angeles CA
226 Uribe,Carlos 429 24:44.0 24:39.0 7:57 M 73 Pasadena CA
227 Levine,Cindy 1325 24:45.2 24:39.9 7:57 F 39 Rancho Palos Verdes CA
228 Rizzo,Shemra 1138 25:14.2 24:43.2 7:58 F 26 Los Angeles CA
229 Thomas,Kenya 420 25:02.3 24:48.6 8:00 M 42 Anytown CA
230 Takamura,Yoshihiro 408 25:34.7 24:52.5 8:01 M 49 Los Angeles CA
231 White,Ron 1101 25:02.3 24:54.1 8:02 M 61 Hemet CA
232 Faircloth,Grant 128 24:56.5 24:55.3 8:02 M 9 Henderson NV
233 Caruso,Joanne 529 25:15.2 25:01.1 8:04 F 50 Beverly Hills CA
234 Vicencia,Nick 887 25:42.9 25:01.4 8:04 M 30 Playa Del Rey CA
235 Messing,Brett 727 25:36.3 25:04.5 8:05 M 46 Los Angeles CA
236 Gold,Stephanie 1234 25:17.5 25:04.9 8:05 F 42 Los Angeles CA
237 Lloyd-kolkin,Sarah 246 25:28.2 25:11.8 8:08 F 30 Santa Monica CA
238 Dewitt,Andrew 102 29:49.0 25:13.3 8:08 M 27 Los Angeles CA
239 Tingey,Catherine 876 25:19.6 25:15.4 8:09 F 37 Santa Monica CA
240 Duenez,Nelda 576 25:24.8 25:22.3 8:11 F 34 Covina CA
241 Vaughan,Craig 885 25:43.7 25:26.1 8:12 M 37 Santa Monica CA
242 Vance,Ladd 1743 25:37.4 25:26.4 8:12 M 44 Calabasas CA
243 Valerio,Mayra 1239 25:33.4 25:29.4 8:13 F 25
244 Bartimer,Mimi 1648 25:36.3 25:29.7 8:13 F 47 Westport CT
245 Neel,Kimberly 1049 25:44.8 25:34.1 8:15 F 34 Los Angeles CA
246 Marks,Jonathan 1340 26:14.6 25:35.0 8:15 M 49 Van Nuys CA
247 Odonnell,Christopher 778 25:57.8 25:39.9 8:17 M 41 Playa Del Rey CA
248 Suddleson,Eric 864 25:59.8 25:40.7 8:17 M 43 Pacific Palisades CA
249 Wilkinson,Kathryn 1087 26:05.3 25:47.2 8:19 F 29 Denver CO
250 Sherry,Christine 377 26:02.3 25:47.8 8:19 F 37 Los Angeles CA
251 Lopez,Javier 1225 26:21.6 25:50.9 8:20 M 23 North Hills CA
252 Suddleson,Joe 865 26:13.6 25:54.3 8:21 M 11 Pacific Palisades CA
253 Claussen,Stephanie 1158 26:18.3 26:01.2 8:24 F 27 Palo Alto CA
254 Tsai,Katherine 427 26:18.2 26:01.3 8:24 F 29 Los Angeles CA
255 Shih,Alan 1242 26:33.9 26:03.3 8:24 M 35 Los Angeles CA
256 Godchaux,Stephen 152 26:19.6 26:03.6 8:24 M 52 Santa Monica CA
257 Brooks,Simon 1645 26:30.9 26:03.8 8:24 M 19 Los Angeles CA
258 Ramberg,Ken 333 26:11.2 26:04.7 8:25 M 46 Santa Monica CA
259 Neel,Chris 1048 26:17.9 26:06.9 8:25 M 41 Los Angeles CA
260 Taylor,Tanya 872 26:34.4 26:08.0 8:26 F 35 Burbank CA
261 Soriano,Eric 857 26:29.5 26:08.2 8:26 M 48 Los Angeles CA
262 Arredondo,Javier 1432 26:31.1 26:08.7 8:26 M 44 Los Angeles CA
263 Reinhardt,Sue 340 26:23.8 26:14.8 8:28 F 64 Rancho Palos Verdes CA
264 Perez,Jorge 796 26:28.4 26:15.0 8:28 M 25 Santa Monica CA
265 Shaffer,Sammy 845 26:29.9 26:16.9 8:29 M 10 Santa Monica CA
266 Ehsaei,Parinaz 122 26:32.7 26:22.9 8:31 F 39 Los Angeles CA
267 Seidel,Sam 1711 26:37.7 26:24.0 8:31 M 10 Los Angeles CA
268 Schaevitz,Rebecca 372 26:43.0 26:25.4 8:31 F 28 Mountain View CA
269 Butler,Jj 522 26:46.2 26:27.4 8:32 M 46 Los Angeles CA
270 O'neill,Kerry 297 26:40.2 26:31.9 8:34 F 34 Santa Monica CA
271 Mccarthy,Michelle 722 26:49.0 26:33.9 8:34 F 20 Manhattan Beach CA
272 Mccarthy,Erin 720 26:48.5 26:37.2 8:35 F 13 Manhattan Beach CA
273 Hollander,Clay 1639 26:53.9 26:38.2 8:36 M 10 Santa Monica CA
274 Hollander,David 1640 26:53.8 26:38.3 8:36 M 43 Santa Monica CA
275 Hamman,Colleen 166 26:52.8 26:38.9 8:36 F 53 Pasadena CA
276 Blain,Tony 996 26:42.4 26:40.1 8:36 M 50 Santa Monica CA
277 Trott,John 426 26:52.6 26:41.6 8:37 M 43 Venice CA
278 Perlas,Aileen 797 27:27.8 26:45.6 8:38 F 25 San Diego CA
279 Zaccaro,Thomas 926 27:02.2 26:47.9 8:39 M 51 Beverly Hills CA
280 Ellen Kanoff,Mary 1636 27:08.9 26:50.3 8:39 F 54 Pacific Palisades CA
281 Milota,Gerry 1635 26:55.0 26:50.4 8:39 M 67 Burbank CA
282 Frey,Mark 1527 27:06.0 26:50.7 8:40 M 50 Westlake Village CA
283 Mcfarland,Frank 261 27:13.7 26:51.2 8:40 M 39 Santa Monica CA
284 Gelbart,Adam 608 27:08.6 26:53.3 8:40 M 14 Los Angeles CA
285 Bartle,Alissa 31 27:09.4 26:54.0 8:41 F 36 Santa Monica CA
286 Rivest,Yvon 350 27:00.8 26:54.4 8:41 M 66 Venice CA
287 Tabach,Jordan 1733 27:07.4 26:55.2 8:41 M 32 Los Angeles CA
288 Szayna B,Thomas 1059 27:10.2 26:56.0 8:41 M 51 Los Angeles CA
289 Thomson,Bruce 874 27:20.5 27:01.0 8:43 M 51 Playa Del Rey CA
290 Sedano,Susy 936 27:23.3 27:01.7 8:43 F 43 Los Angeles CA
291 Roe,Thomas 937 27:22.9 27:01.7 8:43 M 42 Santa Monica CA
292 Fuligni,Gabriel 602 27:10.0 27:02.0 8:43 M 12 Los Angeles CA
293 Bahr,Eric 28 27:21.0 27:03.9 8:44 M 49 Calabasas CA
294 Guitierrez,Janet 1131 27:18.8 27:04.1 8:44 F 30 Pasadena CA
295 Hamilton,Emily 1750 27:59.2 27:05.5 8:44 F 22 Santa Monica CA
296 Sais,Lily 362 27:29.2 27:06.2 8:45 F 29 Santa Monica CA
297 Altiere,Steve 15 27:16.9 27:08.3 8:45 M 36 Los Angeles CA
298 Unknown, 1075 27:20.2 27:08.8 8:45 M 0
299 Anno,Peter 475 27:38.6 27:10.2 8:46 M 41 Torrance CA
300 Battey,Taylor 1756 27:40.7 27:10.6 8:46 F 15 Los Angeles CA
301 Maydanich,Ida Mae 259 27:41.4 27:11.2 8:46 F 33 Tarzana CA
302 Daigle,Tommy 1637 27:31.4 27:14.8 8:47 M 12 Los Angeles CA
303 Sun,David 404 27:37.6 27:15.0 8:47 M 30 Los Angeles CA
304 Bahr,Cindy 26 27:32.3 27:15.1 8:47 F 45 Calabasas CA
305 Sapienza,Mike 830 27:38.3 27:15.2 8:48 M 38 North Hollywood CA
306 Korman,Ann 1026 30:16.0 27:15.6 8:48 F 44 Los Angeles CA
307 Lanman,Eleanor 685 27:53.4 27:22.1 8:50 F 22 Marina Del Rey CA
308 Unknown, 2666 27:42.8 27:22.4 8:50 M 0
309 Shaffer,Leslie 844 27:36.1 27:23.1 8:50 F 47 Santa Monica CA
310 Chanthasene,Bobby 538 27:34.3 27:24.2 8:50 M 23 Lancaster CA
311 Chamberlain,Wade 534 27:47.2 27:24.3 8:50 M 40 Los Angeles CA
312 Rehman,Amira 1349 27:44.1 27:26.5 8:51 F 9 Santa Monica CA
313 Zatulove,Dana 927 29:57.6 27:27.1 8:51 F 45 Encino CA
314 Dunsmuir,Angela 1227 27:52.5 27:28.5 8:52 F 32 Los Angeles CA
315 Federman,Hallie 587 27:49.9 27:28.7 8:52 F 33 Los Angeles CA
316 Nelson,Karlyn 760 27:52.5 27:29.0 8:52 F 35 Hollywood CA
317 Battey,Narl 1757 27:59.9 27:30.2 8:52 M 55 Los Angeles CA
318 Barron,Rebecca 487 27:55.6 27:31.8 8:53 F 32 Los Angeles CA
319 Arendt,Victoria 21 28:00.4 27:38.2 8:55 F 46 Seal Beach CA
320 Dastur,Nadia 959 28:02.7 27:39.1 8:55 F 47 Santa Monica CA
321 Gardner,Lindsav 1440 28:34.0 27:40.4 8:56 M 50 Santa Monica CA
322 Hecker,Ronald 173 27:46.5 27:40.8 8:56 M 71 Los Angeles CA
323 Muirhead,Laura 280 28:02.5 27:43.2 8:57 F 30 Sierra Vista AZ
324 Hamilton,Robert 1749 28:38.4 27:44.2 8:57 M 58 Santa Monica CA
325 Goodin,William 611 27:49.5 27:45.1 8:57 M 63 Manhattan Beach CA
326 Laughlin,Andrew 687 28:01.6 27:45.7 8:57 M 25 Los Angeles CA
327 Vadney,Kentaro 1228 28:17.1 27:47.0 8:58 M 10 Torrance CA
328 Hom,Daniel 639 28:03.9 27:47.6 8:58 M 58 Manhattan Beach CA
329 Ramberg,Quinn 335 27:53.2 27:47.6 8:58 F 9 Santa Monica CA
330 Ramberg,Owen 334 27:56.3 27:51.3 8:59 M 11 Santa Monica CA
331 Hurwitz,Clive 1431 28:12.1 27:51.3 8:59 M 50 Tarzana CA
332 Ho,Jenny 635 28:43.8 27:52.4 8:59 F 32 Los Angeles CA
333 Caruncho,Francesca 1435 28:16.4 27:55.9 9:01 F 15 Los Angeles CA
334 Hery,Katherine 179 28:19.1 27:57.0 9:01 F 26 Los Angeles CA
335 Davis,Julianne 557 28:43.5 27:57.7 9:01 F 32 Ventura CA
336 Lee,Michelle 1072 28:28.3 27:58.8 9:02 F 37 Manhattan Beach CA
337 Sidle,Travis 1334 28:13.0 28:04.6 9:03 M 13 Los Angeles CA
338 Stahl,Samantha 1581 28:52.0 28:06.1 9:04 F 9 Los Angeles CA
339 O'farriell,Natalie 774 28:23.1 28:06.9 9:04 F 23 Los Angeles CA
340 West,Eric 1727 28:25.9 28:07.0 9:04 M 37 South Pasadena CA
341 Rehman,Shikha 1240 28:25.8 28:07.7 9:04 F 46 Santa Monica CA
342 Schiepke,Mike 1089 28:29.0 28:14.8 9:07 M 49 Los Angeles CA
343 Schiepke,Karl 1090 28:28.7 28:15.0 9:07 M 13 Los Angeles CA
344 Wong,J.P. 911 28:52.4 28:15.4 9:07 M 9 Los Angeles CA
345 Kim,Eric 218 28:41.1 28:17.5 9:08 M 30 Los Angeles CA
346 Wong,Mitchell 912 28:55.4 28:18.7 9:08 M 43 Los Angeles CA
347 Rakunas,Adam 330 28:46.8 28:20.1 9:08 M 37 Santa Monica CA
348 Louie,Mia 697 29:09.8 28:20.5 9:09 F 5 Los Angeles CA
349 Louie,Reggie 698 29:10.5 28:20.6 9:09 M 33 Los Angeles CA
350 Orsanic,John 787 28:35.6 28:22.1 9:09 M 40 Los Angeles CA
351 Hsu,Yane 649 28:42.6 28:22.5 9:09 F 37 Marina Del Rey CA
352 Kareem,Sarah 671 28:44.0 28:24.8 9:10 F 36 Santa Monica CA
353 Schwartz,Mark 840 28:51.3 28:25.2 9:10 M 41 Calabasas CA
354 Mccarthy,Laurie 721 28:40.3 28:25.4 9:10 F 55 Manhattan Beach CA
355 Carlson,Jennifer 1512 28:40.6 28:25.8 9:10 F 39 Santa Monica CA
356 Marks,Lawrence 713 28:49.8 28:27.9 9:11 M 42 Tarzana CA
357 Rehman,Aamir 1241 28:50.7 28:33.1 9:13 M 9 Santa Monica CA
358 Margulies,Jeff 257 28:57.6 28:37.3 9:14 M 51 Los Angeles CA
359 Thomson,Doug 875 29:01.2 28:42.5 9:16 M 54 Los Angeles CA
360 Daly,Annie 1734 29:05.0 28:43.7 9:16 F 9 Los Angeles CA
361 Kramer,Jennifer 223 29:23.5 28:50.5 9:18 F 37 Santa Monica CA
362 Ribeiro,Konrad 345 29:24.2 28:51.1 9:18 M 39 Santa Monica CA
363 Stahl,Alexandra 1579 29:37.1 28:51.2 9:18 F 9 Los Angeles CA
364 Soder,Kristina 391 29:15.4 28:52.4 9:19 F 28 Santa Monica, Ca CA
365 Loitman,Tyler 1152 28:53.6 28:52.7 9:19 M 11 Beverly Hills CA
366 Mannino,Andrea 708 29:29.5 28:54.2 9:19 F 30 Philadelphia PA
367 Low,Melissa 939 29:19.1 28:58.6 9:21 F 31 Los Angeles CA
368 Reid,Stacey 813 29:46.2 29:00.8 9:22 F 33 Los Angeles CA
369 Aatson,Adam 1602 29:22.1 29:02.6 9:22 M 33 Los Angeles CA
370 Aldogan,Gonul 471 29:52.8 29:03.5 9:22 F 40 Santa Monica CA
371 Walker,Nick 1155 29:05.9 29:04.6 9:23 M 8 Beverly Hills CA
372 Stahl,Marisa 1580 29:51.9 29:06.4 9:23 F 47 Los Angeles CA
373 Doud,Ellie 113 29:34.6 29:07.2 9:24 F 35 Sherman Oaks CA
374 Keith,Emily 209 29:34.2 29:07.4 9:24 F 33 El Segundo CA
375 Walker Ehrich,Beth 894 29:24.4 29:09.7 9:24 F 36 Sherman Oaks CA
376 Lane,Ally 229 29:46.7 29:09.9 9:25 F 38 Santa Monica CA
377 Henze,Veronica 175 29:25.4 29:10.1 9:25 F 36 Encino CA
378 Brockermeyer,Stephanie 49 29:26.1 29:11.4 9:25 F 38 Los Angeles CA
379 Baracy,John 1504 29:32.5 29:14.5 9:26 M 35 Santa Monica CA
380 Ozaki,Rikio 304 29:57.9 29:15.7 9:26 M 38 Los Angeles CA
381 Caruncho,Mika 528 29:38.3 29:18.5 9:27 F 17 Los Angeles CA
382 Cole,Sue 1145 29:40.3 29:18.9 9:27 F 50 Granada Hills CA
383 Murakama,Leanne 1041 29:39.6 29:19.4 9:28 F 34 Los Angeles CA
384 Costello,Alex 80 29:46.2 29:20.8 9:28 F 37 Los Angeles CA
385 Mcfarland,Rachel 263 29:49.1 29:21.5 9:28 F 33 Santa Monica CA
386 Hinckley,Dary 1135 29:55.9 29:27.9 9:30 F 33 Los Angeles CA
387 Hinckley,Bryan 1428 29:55.5 29:28.3 9:30 M 35 Los Angeles CA
388 Friedman,Andrew 1442 29:48.9 29:28.7 9:31 M 30 Los Angeles CA
389 Cohen,Mitchell 76 30:09.7 29:28.8 9:31 M 53 Santa Monica CA
390 Dwyer,Pat 579 30:08.7 29:30.5 9:31 M 35 Culver City CA
391 Landry,Matthew 228 29:49.7 29:30.6 9:31 M 11 Los Angeles CA
392 Bryant,Jenna 1508 29:59.3 29:31.7 9:32 F 23 Los Angeles CA
393 Snyder,Hal 1720 29:45.3 29:36.1 9:33 M 51 Rancho Palos Verdes CA
394 Lynch Alfaro,Jessica 701 30:06.2 29:38.1 9:34 F 43 Santa Monica CA
395 Weaver,Barry 1427 29:51.6 29:39.9 9:34 M 54 Playa Del Rey CA
396 Bromber,Paris 50 29:50.2 29:40.8 9:34 F 10 Sherman Oakes CA
397 Bartimer,Larry 1751 29:49.9 29:42.9 9:35 M 55 Westport CT
398 Green,Julienne 158 29:52.8 29:43.6 9:35 F 11 Sherman Oaks CA
399 Petlak,Yosef 321 30:17.1 29:45.5 9:36 M 11 Los Angeles CA
400 Burton,Charles 1509 30:11.8 29:48.7 9:37 M 38 El Segundo CA
401 Burton,Serena 1510 30:12.4 29:49.1 9:37 F 31 El Segundo CA
402 Miyahara,Yuko 1556 30:13.5 29:49.1 9:37 F 34 Los Angeles CA
403 Mcelhenney,Michael 1142 29:59.3 29:49.2 9:37 M 6 Los Angeles CA
404 McElhenney,Michael 1143 30:00.1 29:50.0 9:37 M 42 Los Angeles CA
405 Urquidi,Bianca 882 30:28.1 29:51.2 9:38 F 30 Santa Monica CA
406 Bogdan,Matt 508 30:28.6 29:51.9 9:38 M 31 Santa Monica CA
407 moore E,Thomas 1150 30:07.7 29:53.8 9:39 M 12 Los Angeles CA
408 Deadrick,Vince 98 30:00.0 29:55.0 9:39 M 56 Los Angeles CA
409 Eickhoff,Lelani 582 30:40.3 29:57.5 9:40 F 43 Simi Valley CA
410 Rossi,Monica 1232 30:15.4 29:58.8 9:40 F 46 Oxnard CA
411 Gold,Ryan 1343 30:11.5 29:59.1 9:40 M 11 Los Angeles CA
412 Stevens,Chloe 1345 30:12.6 30:00.5 9:41 F 13 Los Angeles CA
413 Green,Jared 157 30:10.6 30:01.0 9:41 M 14 Sherman Oaks CA
414 Wilkins,Lesteni 904 30:11.8 30:03.4 9:42 F 38 Santa Monica CA
415 Vicencia,Nina 888 30:44.2 30:03.6 9:42 F 34 Playa Del Rey CA
416 Hui,Janis 191 30:44.8 30:03.6 9:42 F 29 Los Angeles CA
417 Kuroiwa,Keiko 683 30:46.0 30:04.8 9:42 F 40 Culver City CA
418 Nakata,Donele 757 30:56.1 30:13.4 9:45 F 40 Simi Valley CA
419 Taylor,Kahil 1233 30:30.7 30:18.6 9:47 M 28 Los Angeles CA
420 Davis,Emily 1157 30:49.3 30:21.2 9:47 F 25 Los Angeles CA
421 Killian,Wendelyn 1231 30:37.3 30:25.8 9:49 F 39 Los Angeles CA
422 Dann,Catherine 554 30:47.0 30:26.1 9:49 F 37 Culver City CA
423 Davis,Maureen 558 30:56.4 30:28.5 9:50 F 27 Los Angeles CA
424 Tessler,Talya 418 31:00.3 30:29.0 9:50 F 9 Los Angeles CA
425 Klein,Deborah 678 31:00.4 30:32.2 9:51 F 51 Santa Monica CA
426 Johnson,Rodney 1122 30:52.5 30:34.8 9:52 M 52 Inglewood CA
427 Yeh,Carolyn 462 31:00.5 30:40.5 9:54 F 26 Los Angeles CA
428 Simpson,Leezza 1111 31:53.7 30:40.6 9:54 F 34 Agoura Hills CA
429 Sultan,Michael 868 30:52.3 30:43.8 9:55 M 68 Pacific Palisades CA
430 Kleinberg,Jenny 679 31:04.9 30:44.1 9:55 F 33 Los Angeles CA
431 Dahl,Laura 88 31:05.3 30:44.6 9:55 F 32 Irvine CA
432 Miyamoto,Manami 739 31:27.0 30:45.6 9:55 F 36 Costa Mesa CA
433 Balas,Amete 483 31:36.0 30:46.5 9:56 M 36 Encino CA
434 Barbosa,Welton 30 31:51.6 30:47.0 9:56 M 44 Santa Monica CA
435 Miller,Steve 1444 35:41.1 30:47.0 9:56 M 44
436 Einarsdottir,Helga 123 30:54.2 30:49.6 9:57 F 39 Sherman Oaks CA
437 Ludwig,Jennifer 251 31:20.5 30:51.6 9:57 F 38 Hawthorne CA
438 Miyamoto,Frances 1627 31:13.5 30:52.8 9:58 F 49 Culver City CA
439 Poole,Sandra 326 31:34.7 30:52.8 9:58 F 29 Santa Monica CA
440 King,Sandy 961 31:18.2 30:53.1 9:58 F 40 Santa Monica CA
441 Hallock,Rirhahd 948 31:10.0 30:55.0 9:58 M 66 Los Angeles CA
442 Avery,Donna 22 31:16.0 30:56.3 9:59 F 54 Winnetka CA
443 Dennis,Andrew 1162 32:31.1 30:57.9 9:59 M 33 Los Angeles CA
444 Mendoza,Andy 1163 32:32.9 31:00.3 10:00 F 32 Los Angeles CA
445 Wood,Roger 1201 31:06.5 31:01.3 10:00 M 78 Lancaster CA
446 Sobhani,Bob 390 31:16.6 31:09.2 10:03 M 42 Santa Monica CA
447 Tovar,Camille 878 31:50.3 31:14.7 10:05 F 40 Los Angeles CA
448 Bjornlie,Andrea 1070 31:40.7 31:17.1 10:06 F 54 Santa Monica CA
449 Fuligni,Andrew 600 31:33.1 31:18.9 10:06 M 45 Los Angeles CA
450 Steffen,April 398 31:45.5 31:19.1 10:06 F 36 Porter Ranch CA
451 Hinson,Sarina 634 31:45.4 31:20.5 10:07 F 32 Santa Monica CA
452 Everhart,Elizabeth 584 31:32.7 31:23.0 10:07 F 27 Los Angeles CA
453 Helberg,Blair 625 31:33.2 31:23.6 10:08 F 27 Los Angeles CA
454 Chan,Peter 536 31:27.1 31:25.1 10:08 M 36 Chatsworth CA
455 Chan,Matthew 535 31:26.9 31:25.3 10:08 M 9 Chatsworth CA
456 Diggins,Lorenzo 570 31:45.6 31:30.2 10:10 M 22 Oak Park CA
457 Bonetti,Alyssa 1071 32:01.3 31:30.9 10:10 F 26 Los Angeles CA
458 Levin,Patty 1439 32:11.2 31:38.5 10:12 F 45 Los Angeles CA
459 Fox,James 1438 32:11.2 31:38.8 10:13 M 57 Studio City CA
460 Hamilton,Karen 1745 31:57.0 31:42.4 10:14 F 39 Sherman Oaks CA
461 Pelais,Antonio 317 32:46.1 31:48.9 10:16 M 49 West Covina CA
462 Schwartz,Hillary 376 32:41.6 31:49.1 10:16 F 39 Sherman Oaks CA
463 Castro,Manuel 1311 32:15.5 31:49.5 10:16 M 43 Pico Rivera CA
464 Feldman,Justin 1739 32:11.2 31:50.2 10:16 M 13 Tarzana CA
465 Macdonald,Amber 704 32:27.9 32:03.4 10:20 F 28 Los Angeles CA
466 O'brien,Kathryn 770 32:28.9 32:06.1 10:21 F 39 San Gabriel CA
467 Dyner,Carolynne 117 32:37.1 32:12.2 10:23 F 42 Beverly Hills CA
468 Rappaport,Robin 336 32:34.0 32:14.3 10:24 F 51 Encino CA
469 Brooks,Stan 1644 32:44.9 32:17.0 10:25 M 53 Los Angeles CA
470 Ordonez,Marcela 785 32:40.2 32:18.6 10:25 F 29 Canoga Park CA
471 Silver,Deborah 851 32:45.7 32:18.8 10:25 F 50 Los Angeles CA
472 Hill,Charles 1607 33:03.2 32:26.9 10:28 M 61 Pacific Palisades CA
473 Juszczakiewic,Joanna 1651 33:15.0 32:30.9 10:29 F 38 Pacific Palisades CA
474 Seifert,Tucker 1650 33:15.0 32:31.0 10:29 M 15 Pacific Palisades CA
475 Braunstein,Alex 513 32:49.5 32:34.1 10:30 M 15 Santa Monica CA
476 Vadney,Tim 1230 33:03.8 32:34.4 10:30 M 42 Torrance CA
477 Vadney,Mikiya 1229 33:04.6 32:34.8 10:31 M 7 Torrance CA
478 Morris,Julie 278 32:46.5 32:35.1 10:31 F 51 Los Angeles CA
479 Connelly,Katherine 1516 32:46.8 32:35.9 10:31 F 32 Sherman Oaks CA
480 Ramberg,Bari 332 33:04.5 32:37.7 10:32 F 44 Santa Monica CA
481 Salg,Dana 1151 33:24.5 32:41.7 10:33 F 24 Long Beach CA
482 Lee,Linda 690 33:02.3 32:42.3 10:33 F 53 Sherman Oaks CA
483 Perlas,Anna 318 33:24.8 32:42.8 10:33 F 24 Los Angeles CA
484 Altman,Renee 473 32:57.7 32:44.1 10:34 F 31 Beverly Hills CA
485 Leon,Denisse 1755 33:18.7 32:44.7 10:34 F 32 Los Angeles CA
486 Isgrig,Kiera 661 32:57.0 32:45.1 10:34 F 13 Manhattan Beach CA
487 Marcus,Ryland 711 33:17.9 32:47.5 10:35 M 13 Santa Monica CA
488 Hery,Louise 631 33:13.3 32:50.9 10:36 F 57 Newburyport MA
489 Arredondo,Denise 1141 33:16.5 32:53.9 10:37 F 30 Manhattan Beach CA
490 Lyons,Rebecca 254 33:21.9 32:57.8 10:38 F 25 San Gabriel CA
491 Ivey,Brandon 193 33:22.8 32:58.3 10:38 M 36 San Gabriel CA
492 Hom,Melissa 640 33:17.3 32:59.8 10:39 F 23 Manhattan Beach CA
493 Frohnen,Patricia 146 33:22.3 33:00.9 10:39 F 31 Santa Monica CA
494 Dyal,Griffin 580 33:29.3 33:04.1 10:40 M 8 North Hollywood CA
495 Witler,Esther 907 33:17.3 33:07.8 10:41 F 50 La Crescenta CA
496 Dacanay,John 553 33:33.1 33:09.6 10:42 M 37 Pasadena CA
497 Maguin,Ethan 1341 33:28.2 33:10.6 10:42 M 8 Hope Mills NC
498 Guan,Feng 164 33:32.3 33:14.1 10:43 M 24 Los Angeles CA
499 Hom,Christina 638 33:36.5 33:16.2 10:44 F 55 Manhattan Beach CA
500 Miller,Jake 1630 33:28.7 33:19.3 10:45 M 10 Winnetka CA
501 Chan,Michelle 1752 33:59.0 33:21.0 10:46 F 33 Winnetka CA
502 Maddox,John 255 33:50.8 33:23.1 10:46 M 64 Los Angeles CA
503 Castro,Kevin 65 33:24.5 33:23.6 10:46 M 16 Pico Rivera CA
504 Deitchman,Beth 1519 33:49.8 33:24.5 10:47 F 41 Sherman Oaks CA
505 Pfannkuche,Tony 1063 33:48.8 33:24.5 10:47 M 59 Pacific Palisades CA
506 Sievers,Ruby 381 34:11.4 33:26.7 10:47 F 6 Santa Monica CA
507 Kaveh,Chris 207 34:03.0 33:29.7 10:48 M 41 Los Angeles CA
508 Kaveh,Nicolas 208 34:03.2 33:30.6 10:49 M 9 Los Angeles CA
509 Miller,Craig 1629 33:40.9 33:31.8 10:49 M 42 Winnetka CA
510 Sievers,Cate 379 34:17.8 33:32.6 10:49 F 9 Santa Monica CA
511 Pelais,Alice 316 34:28.4 33:35.2 10:50 F 34 West Covina CA
512 Sihafer,Martin 952 33:59.9 33:35.4 10:50 M 57 Los Angeles CA
513 Carison,Julia 946 34:20.4 33:35.4 10:50 F 6 Santa Monica CA
514 Shafer,Jessie 951 33:59.9 33:35.5 10:50 F 18 Los Angeles CA
515 Weston,Brad 1149 34:07.8 33:41.4 10:52 M 46 Los Angeles CA
516 Weston,Ella 1148 34:07.9 33:41.7 10:52 F 9 Los Angeles CA
517 Winebaum,Tess 1237 34:07.9 33:41.9 10:52 F 17 Los Angeles CA
518 Huynh,Billy 953 34:08.2 33:42.2 10:52 M 39 Culver City CA
519 Salomons,Stan 365 34:18.8 33:56.4 10:57 M 55 Encino CA
520 Pollack,Jason 803 35:24.6 34:10.3 11:01 M 42 Los Angeles CA
521 Kosinski,Kristin 1542 35:11.2 34:10.4 11:01 F 36 Santa Monica CA
522 Kosinski,Joe 1540 35:11.2 34:10.6 11:02 M 37 Santa Monica CA
523 Carlson,Jennifer 947 34:57.6 34:12.4 11:02 F 39 Santa Monica CA
524 Sievers,Kelly 380 34:57.7 34:12.9 11:02 F 41 Santa Monica CA
525 Karnya,Stacee 672 35:00.1 34:22.3 11:05 F 30 Culver City CA
526 Majalca,Domenica 707 34:56.2 34:25.5 11:06 F 30 Northridge CA
527 Acosta,Petra 467 34:57.1 34:30.2 11:08 F 37 Los Angeles CA
528 Winebaum,Cindy 1347 35:04.9 34:38.4 11:10 M 50 Los Angeles CA
529 Miller,Tara 735 35:15.9 34:42.6 11:12 F 41 North Hollywood CA
530 Simon,Debbie 1754 35:24.8 34:46.6 11:13 F 48 Los Angeles CA
531 Worchell,Owen 916 36:20.9 35:06.8 11:20 M 7 Los Angeles CA
532 Unknown, 1336 35:46.7 35:06.9 11:20 M 0
533 Pollack,Barry 802 36:21.1 35:07.1 11:20 M 61 Los Angeles CA
534 Power,Pamela 327 35:48.8 35:09.1 11:20 F 68 Santa Monica CA
535 Epstein,Tina 1001 35:30.3 35:10.9 11:21 F 57 Sherman Oaks CA
536 O'farriell,Karen 772 35:28.8 35:11.8 11:21 F 57 Cupertino CA
537 O'farriell,Lindsey 773 35:28.7 35:11.9 11:21 F 26 Cupertino CA
538 Gutierrez,Yessenia 1429 35:58.7 35:12.5 11:21 F 29 Los Angeles CA
539 Saulsberry,Traci 835 35:27.8 35:12.7 11:22 F 22 Oak Park CA
540 Silver,Ellen 852 36:02.4 35:15.2 11:22 F 54 Van Nuys CA
541 Wong,Albert 908 35:49.8 35:19.1 11:24 M 57 Los Angeles CA
542 Jih,Will 1425 36:01.6 35:22.6 11:25 M 35 Highland CA
543 Tanner,Bill 1008 35:42.9 35:26.2 11:26 M 67 Los Angeles CA
544 Wieder,Joshua 448 35:45.5 35:27.5 11:26 M 51 Pacific Palisades CA
545 Grego,Joyce 617 35:37.4 35:29.1 11:27 F 57 Los Angeles CA
546 Wruble,Jeffrey 920 36:30.1 35:30.5 11:27 M 56 Encino CA
547 Banuelos,Humberto 486 36:23.1 35:45.7 11:32 M 10 Downey CA
548 Diaz,Jeannette 566 36:23.3 35:46.2 11:32 F 27 Downey CA
549 Gayheart,Bradley 149 36:08.9 35:46.7 11:33 M 36 Seal Beach CA
550 Widerstrom,Jennifer 903 40:03.8 35:53.4 11:35 F 28 Sherman Oaks CA
551 Hussain,Kiran 656 40:04.5 35:53.7 11:35 F 26 Los Angeles CA
552 Cohen,Rose 77 36:14.9 35:55.0 11:35 F 55 Santa Monica CA
553 Fuligni,Allison 599 36:21.7 35:56.4 11:36 F 43 Los Angeles CA
554 Marcus,Amorette 709 36:27.5 35:57.4 11:36 F 9 Santa Monica CA
555 Walts,Leonard 1342 36:16.4 35:57.5 11:36 M 82 Los Angeles CA
556 Marcus,Mort 710 36:28.6 35:58.6 11:36 M 57 Santa Monica CA
557 Winegar,Thomas 1719 36:15.6 35:59.5 11:37 M 16 Rancho Palos Verdes CA
558 Wieder,Zachary 449 36:18.2 36:00.0 11:37 M 13 Pacific Palisades CA
559 Lew,Jennifer 1546 36:11.8 36:04.2 11:38 F 43 Santa Monica CA
560 Weiss,Zachary 898 36:46.2 36:07.7 11:39 M 9 L.A. CA
561 Erickson,Kelly 1705 36:33.4 36:14.4 11:41 F 25 Los Angeles CA
562 Frohnen,Daniel 145 36:37.2 36:15.7 11:42 M 31 Santa Monica CA
563 Pfann Uche,Molly 1064 36:49.8 36:25.4 11:45 F 19 Pacific Palisades CA
564 Messing,Morgan 729 36:57.7 36:25.9 11:45 F 10 Los Angeles CA
565 Stoeckli,Janell 400 36:42.1 36:29.3 11:46 F 36 Los Angeles CA
566 Messing,Marla 728 37:03.1 36:31.2 11:47 F 47 Los Angeles CA
567 Roskin,Adele 1569 37:07.7 36:31.7 11:47 F 7 Los Angeles CA
568 Roskin,Rick 822 37:07.5 36:31.8 11:47 M 45 Los Angeles CA
569 Scheich,Vw 373 37:30.3 36:37.5 11:49 M 33 Playa Del Rey CA
570 Le,Uyen 232 37:30.3 36:37.7 11:49 F 37 Playa Del Rey CA
571 Petlak,Tova 320 37:23.3 36:48.9 11:53 F 10 Los Angeles CA
572 Tessler,Jonathan 417 37:24.3 36:49.2 11:53 M 46 Los Angeles CA
573 Tessler,Hannah 416 37:23.7 36:49.3 11:53 F 8 Los Angeles CA
574 Pfannkuche,Carol 1062 37:21.3 36:54.7 11:54 F 50 Pacific Palisades CA
575 Green,Georgette 615 37:11.3 37:04.1 11:57 F 38 Winnetka CA
576 Liu,Michelle 244 37:41.5 37:06.9 11:58 F 28 Hacienda Heights CA
577 Chow,Linda 73 37:42.3 37:07.4 11:59 F 28 Hacienda Heights CA
578 Chen,Sarah 1317 37:42.3 37:07.6 11:59 F 29 Placentia CA
579 Vainshtok,Eleanor 432 37:30.1 37:10.4 12:00 F 33 Los Angeles CA
580 Hickenbotham,Alisha 180 37:47.0 37:23.2 12:04 F 32 Santa Monica CA
581 Robinson,Bonnie 1079 37:54.1 37:28.4 12:05 F 70 Los Angeles CA
582 Sy,Minnie 407 38:22.3 37:29.4 12:06 F 36 Alhambra CA
583 Saulsberry,Rodney 834 37:34.9 37:30.7 12:06 M 54 Agoura Hills CA
584 Feldman,Ken 1740 38:06.1 37:45.0 12:11 M 48 Tarzana CA
585 Sawyer,Adriann 1224 38:18.1 37:49.9 12:12 F 24 Woodland Hills CA
586 Wheeler,Megan 447 38:10.9 37:49.9 12:12 F 15 Pacific Palisades CA
587 Tatum,Ella 1646 38:12.0 37:51.7 12:13 F 13 Santa Monica CA
588 Guesno,Carol 1327 38:41.7 38:00.9 12:16 F 59 Long Beach CA
589 Guesno,Larry 1328 38:41.4 38:01.3 12:16 M 61 Long Beach CA
590 Cortrite,Michelle 547 38:15.5 38:02.4 12:16 F 20 Santa Monica CA
591 Paz,Denise 314 38:31.9 38:03.2 12:17 F 64 Santa Monica CA
592 Neandross,Mimi 1746 38:20.0 38:04.5 12:17 F 34 Los Angeles CA
593 Buen Abad Romero,Fernando 53 38:45.8 38:05.6 12:17 M 17 Tequisquiapan Mex
594 Hallberg,Shirley 622 38:50.0 38:07.5 12:18 F 69 Los Angeles CA
595 Unknown, 2665 38:50.7 38:10.7 12:19 M 0
596 Michalak,Dylan 1551 39:13.6 38:12.1 12:19 M 7 Rancho Palos Verdes CA
597 Dieguez,Iris 569 38:24.2 38:16.6 12:21 F 32 North Hollywood CA
598 Villalobos,Edward 1632 38:40.3 38:22.7 12:23 M 68 Long Beach CA
599 Cox,Will 1139 38:38.8 38:29.3 12:25 M 14 Los Angeles CA
600 Kramer,Anastasia 1161 38:46.2 38:38.7 12:28 F 74
601 Walker,Jacob 1153 38:45.3 38:44.2 12:30 M 10 Beverly Hills CA
602 Clark,Carolyn 1652 39:36.4 39:02.2 12:36 F 32 Santa Monica CA
603 Pahl,Linda 307 40:03.0 39:19.4 12:41 F 54 Los Angeles CA
604 Neuhauser,Kim 950 40:12.2 39:19.5 12:41 F 50 Canoga Park CA
605 Korman,Paris 1024 42:23.2 39:22.0 12:42 F 14 Los Angeles CA
606 Walker,Charlotte 1154 39:46.1 39:22.5 12:42 F 6 Beverly Hills CA
607 Nicholas,Susanne 291 39:34.8 39:24.1 12:43 F 53 Los Angeles CA
608 Cohen,Jessica 945 40:20.7 39:29.9 12:44 F 35 Los Angeles CA
609 Mcgibbon,Austin 1717 39:47.1 39:30.6 12:45 M 16 Rancho Palos Verdes CA
610 Worchell,Greg 914 40:56.8 39:41.7 12:48 M 43 Los Angeles CA
611 Tchen,Yuen-tching 1100 40:41.7 39:42.9 12:49 F 58 Santa Monica CA
612 Gaugler,Peter 606 40:45.5 39:47.9 12:50 M 38 Los Angeles CA
613 Yates,Paul 922 40:46.5 39:48.8 12:51 M 48 Los Angeles CA
614 Greenseid,Diane 616 40:30.6 39:57.2 12:53 F 62 Venice CA
615 Padilla,Raymond 1020 40:47.7 39:58.0 12:54 M 4 Playa Del Rey CA
616 Garcia,Roberto 1528 41:41.5 40:00.9 12:54 M 40 Van Nuys CA
617 Beetley,Kirk 32 40:13.3 40:03.1 12:55 M 41 Santa Monica CA
618 Sinnathamby,Sris 854 41:16.3 40:13.8 12:59 M 50 Venice CA
619 Butler,Tadashi 1066 41:29.5 40:31.2 13:04 M 9
620 Finkelstein Hynes,Harrison 594 41:35.3 40:36.4 13:06 M 9 Los Angeles CA
621 Eun,Sarah 583 41:36.6 40:38.4 13:07 F 38 Los Angeles CA
622 Butler,Kenji 1067 41:40.8 40:42.2 13:08 M 9 Los Angeles CA
623 Hamano,Yoshiharu 933 40:58.4 40:45.3 13:09 M 63 Temple City CA
624 Sewani,Rahim 843 45:00.2 40:49.9 13:10 M 29 Los Angeles CA
625 Burrell,Cathy 1238 41:53.1 40:55.8 13:12 F 44 Los Angeles CA
626 Sutton,Kelly 405 41:34.5 40:58.8 13:13 F 29 Hermosa Beach CA
627 Demetriades,Lesley 101 41:34.8 40:59.1 13:13 F 31 Los Angeles CA
628 Kaluzniacki,Juliet 670 42:42.1 41:00.8 13:14 F 42 Burbank CA
629 Sultan,Lee 867 42:05.3 41:55.5 13:31 F 52 Pacific Palisades CA
630 Vogelsang,Karen 1593 43:02.2 42:23.9 13:41 F 52 Costa Mesa CA
631 Knowlton,Barbara 680 42:55.2 42:24.4 13:41 F 47 Santa Monica CA
632 Roache,Michelle 1040 43:06.5 42:28.7 13:42 F 38 Burbank CA
633 Gilbert,Laurie 609 43:32.1 42:31.8 13:43 F 51 Venice CA
634 Murphy,Mike 282 43:35.4 42:32.0 13:43 M 69 Inglewood CA
635 Rainey,Katie 1039 43:09.8 42:32.4 13:43 F 47 Beverly Hills CA
636 Alben,Ted 470 43:15.6 42:36.9 13:45 M 51 Stevenson Ranch CA
637 Rohrbach,Louise 1057 43:04.7 42:39.3 13:46 F 59 Los Angeles CA
638 Salomons,Carol 364 43:13.2 42:50.2 13:49 F 56 Encino CA
639 Horwich,Tamara 646 42:50.9 42:50.9 13:49 F 38 Los Angeles CA
640 Lipshutz,Gerry 694 42:50.9 42:50.9 13:49 M 47 Los Angeles CA
641 Hecht,Elissa 940 43:40.0 43:00.7 13:53 F 32 Los Angeles CA
642 Hecht,Jonathan 941 43:40.1 43:00.9 13:53 M 37 Los Angeles CA
643 Margulies,Jody 1222 44:34.2 43:35.1 14:04 F 52 Pacific Palisades CA
644 Pearlstein,Robert 793 44:25.2 43:38.0 14:05 M 37 Santa Monica CA
645 Pearlstein,Joanna 792 44:25.3 43:38.4 14:05 F 40 San Francisco CA
646 Silver,Step 1144 44:25.3 43:39.0 14:05 M 70 Los Angeles CA
647 Silver,Sarah 1443 44:43.7 43:45.2 14:07 F 33 Los Angeles CA
648 Williams,Gina 905 44:15.3 43:58.2 14:11 F 40 Lawndale CA
649 Sullivan,Cesiley 866 45:01.8 44:13.5 14:16 F 21 West Hills CA
650 Martin,Sarah 714 45:02.1 44:14.1 14:16 F 47 West Hills CA
651 Greene,Ivy 1331 45:18.0 44:19.3 14:18 F 48 Pacific Palisades CA
652 Morse,Lloyd 1558 45:22.7 44:25.5 14:20 M 35 Rosamond CA
653 Morse,Cynthia 1557 45:23.1 44:26.6 14:20 F 33 Rosamond CA
654 Javorsek,Eleanor 665 45:25.3 44:29.1 14:21 F 28 Edwards CA
655 Szayna,Erik 1058 44:40.1 44:32.0 14:22 M 12 Los Angeles CA
656 Latham,Mary 1021 45:10.0 44:40.1 14:25 F 41 Playa Del Rey CA
657 Padilla,Joseph 1022 45:09.7 44:40.2 14:25 M 40 Playa Del Rey CA
658 Hird,Joan 185 45:22.6 44:40.6 14:25 F 59 Chino Hills CA
659 Wildman,Simona 450 45:24.6 44:46.6 14:27 F 73 Encino CA
660 Nicolas,Jenny 1562 46:01.9 45:06.4 14:33 F 31 Los Angleles CA
661 Jimenez-martinez,Cynthia 668 46:02.3 45:06.7 14:33 M 24 Los Angeles CA
662 Avery,Toni 23 46:35.2 46:13.8 14:55 F 22 Winnetka CA
663 Montgomery,Debra 741 47:11.2 46:36.0 15:02 F 50 Oak Park CA
664 Saulsberry,Helen 833 47:26.2 46:50.6 15:07 F 54 Oak Park CA
665 Orsanic,Heather 786 47:13.8 46:52.7 15:07 F 39 Los Angeles CA
666 Diaz,Salome 567 47:46.8 47:13.6 15:14 F 40 Oxnard CA
667 Beauvais,Edward 497 47:46.9 47:14.2 15:14 M 43 Oxnard CA
668 Stebbins,Judith 397 48:02.7 47:49.3 15:26 F 54 Torrance CA
669 Winett,Ella 1736 48:38.0 48:09.0 15:32 F 8 Los Angeles CA
670 Winett,Jim 1738 48:38.8 48:09.1 15:32 M 45 Los Angeles CA
671 Firestone,Meredith 596 48:43.2 48:09.3 15:32 F 25 Encino CA
672 Winett,Sasha 1737 48:38.5 48:09.5 15:32 F 6 Los Angeles CA
673 Navarroli,Kendra 759 48:36.6 48:16.0 15:34 F 35 West Hollywood CA
674 Monk,Glenna 275 49:17.0 48:22.1 15:36 F 57 Los Angeles CA
675 Joe,Edna 197 49:24.9 48:31.8 15:39 F 59 Los Angeles CA
676 Yamasaki,Sheri 460 49:21.1 48:38.3 15:41 F 38 Los Angeles CA
677 Kim,Steven 219 49:22.0 48:39.6 15:42 M 38 Los Angeles CA
678 Polayo,Celan 1140 49:10.2 48:41.7 15:43 F 31
679 Freeman,Barbara 1525 49:42.5 48:52.1 15:46 F 68 Torrance CA
680 Kemna-gonzales,Gabrielle 210 50:02.7 49:28.7 15:58 F 44 Los Angeles CA
681 Murphy,Rita 283 50:10.8 49:30.1 15:58 F 71 Inglewood CA
682 Kiely,Sweeni 1164 54:21.3 49:34.8 16:00 F 30
683 Fisher,Kelly 597 54:21.2 49:35.1 16:00 F 30 Wethersfield CT
684 Dagdagan,Marissa Dagdagan 87 50:24.5 49:49.9 16:05 F 33 Los Angeles CA
685 Gonong,Christine 155 50:28.0 49:53.1 16:06 F 35 Los Angeles CA
686 Goldblum,Roberta 154 50:53.8 50:18.6 16:14 F 67 Beverly Hills CA
687 Young,Valeri 1595 51:14.6 50:36.1 16:19 F 57 Los Angeles CA
688 Davis,Ryan 971 51:11.3 50:39.7 16:21 M 37
689 Firestone,Bridget 595 51:16.2 50:42.2 16:21 F 28 Encino CA
690 Marks,Chera 1338 52:25.3 51:22.6 16:34 F 45 Van Nuys CA
691 Mumford,Chad 1559 51:25.5 51:25.5 16:35 M 29 North Hollywood CA
692 Wong,Claudia 909 53:10.7 52:16.0 16:52 F 12 Los Angleles CA
693 Sarkisian,Barbara 831 53:11.2 52:16.6 16:52 F 68 Oakland CA
694 Michalak,Cathy 1550 53:54.4 52:53.1 17:04 F 38 Rancho Palos Verdes CA
695 King,John 1742 54:45.1 54:08.4 17:28 M 76 Calabasas CA
696 Crown,Geri 549 55:20.4 54:25.7 17:33 F 57 Sherman Oaks CA
697 Wruble,Allison 918 55:43.8 54:47.7 17:41 F 23 Encino CA
698 Ross,Lloyd 823 56:05.9 55:11.8 17:48 M 62 Northridge CA
699 Kolar,Kovy 1759 1:00:16.6 55:16.2 17:50 F 36
700 Novice,Ken 1758 1:00:16.4 55:16.4 17:50 M 49
701 Tasssone,John 982 56:06.6 55:18.8 17:51 M 45 North Hollywood
702 Ledesma,Lucy 986 56:25.7 55:38.4 17:57 F 25 Sylmar CA
703 Rivas,Melinda 985 56:28.2 55:40.7 17:58 F 23 Los Angeles
704 Johnston,Elsa 201 57:13.1 56:09.5 18:07 F 66 Los Angeles CA
705 Johnston,Dale 200 57:13.3 56:09.5 18:07 M 70 Los Angeles CA
706 Adel,Nancy 468 57:32.1 56:14.3 18:08 F 65 Los Angeles CA
707 Worchell,Hilary 915 57:33.2 56:14.9 18:09 F 43 Los Angeles CA
708 Worchell,Allie 913 57:33.5 56:15.4 18:09 F 9 Los Angeles CA
709 Rawstron,Carla 810 57:13.3 56:19.6 18:10 F 48 Northridge CA
710 Kinsey,Helen 1136 56:54.9 56:21.2 18:11 F 63 Costa Mesa CA
711 Pettijohn,Maryann 1065 56:55.5 56:22.0 18:11 F 18 Pacific Palisades CA
712 Hilaire,Melissa 181 57:21.6 56:52.3 18:21 F 15 Los Angeles CA
713 Burgess,Casey 519 57:22.6 56:53.3 18:21 F 15 Los Angeles CA
714 Dworkin,Allyson 578 58:00.5 57:00.4 18:23 F 48 Santa Monica CA
715 Ferraro,Steve 590 59:45.7 58:45.0 18:57 M 34 Downey CA
716 Mumford,Ellen 1560 58:49.7 58:49.7 18:59 F 65 Dixon IL
717 Evangelista,Anne 1408 59:44.8 59:00.8 19:02 F 44 Los Angeles CA
718 Boyd,Daryle 1118 59:45.2 59:01.3 19:02 M 47 Los Angeles CA
719 ,Chandelaria 1210 59:45.1 59:03.2 19:03 F 49 Hawthorne CA
720 Borun,Jennifer 1099 59:18.9 59:18.9 19:08 F 32 Los Angeles CA
721 Benenson,Bill 1156 1:01:25.4 1:00:55.4 19:39 M 68 Santa Monica CA
722 Feick,Rosemary 588 1:02:54.3 1:01:58.9 20:00 F 56 Los Angeles AS
723 Small,Joyce 389 1:03:13.3 1:02:24.0 20:08 F 61 Santa Monica CA
724 Mcmillan,Tommie 265 1:03:13.2 1:02:24.2 20:08 F 61 Los Angeles CA
725 Cortrite,Alicia 545 1:03:27.8 1:02:50.3 20:16 F 54 Santa Monica CA
726 Walston,Joan 896 1:03:29.1 1:02:52.0 20:17 F 71
727 Freeman,Jeremy 1526 1:04:12.4 1:03:21.3 20:26 M 38 Torrance CA
728 Borun,Brigitte 990 1:04:07.0 1:04:07.0 20:41 F 44 Santa Monica CA
729 Ota,Anisa 1036 1:05:29.2 1:05:29.2 21:07 F 9 Rancho Palos Verdes CA
730 Chavez,Phoebe 1127 1:05:53.7 1:05:53.7 21:15 F 6 South Gate CA
731 Greenberg,Dick 1134 1:06:33.3 1:06:05.8 21:19 M 90 Encino CA
732 Lovett,Liam 955 1:06:06.1 1:06:06.1 21:19 M 6 Los Angeles CA
733 Davis,Fred 970 1:07:03.4 1:06:12.8 21:22 M 64 Reseda
734 Warson,Debbie 984 1:07:02.1 1:06:13.8 21:22 F 41 North Hollywood
735 Baca,Danny 969 1:06:46.1 1:06:14.8 21:22 M 40 North Hollywood
736 Doumeng,Dominique 1017 1:06:27.8 1:06:27.8 21:26 F 7 Los Angeles CA
737 Tatum,Lena 1250 1:06:28.6 1:06:28.6 21:27 10
738 Alperin,Courtney 987 1:06:38.5 1:06:38.5 21:30 F 11 Santa Monica CA
739 Nascimento,Marina 1069 1:06:42.5 1:06:42.5 21:31 F 8 Los Angeles CA
740 Safee,Mina 989 1:06:55.5 1:06:55.5 21:35 F 8 Santa Monica CA
741 Stern,Lily 1097 1:07:00.1 1:07:00.1 21:37 F 8 Santa Monica CA
742 Oneill,Tess 995 1:07:00.4 1:07:00.4 21:37 F 4 Santa Monica CA
743 Kang,Hannah 991 1:07:01.8 1:07:01.8 21:37 F 7 Los Angeles CA
744 Sun,Eric 993 1:07:02.5 1:07:02.5 21:38 M 6 Los Angeles CA
745 Alperin,Gabrielle 988 1:07:08.0 1:07:08.0 21:39 F 8 Santa Monica CA
746 Safee,Mahsa 1002 1:07:08.3 1:07:08.3 21:39 F 6 Santa Monica CA
747 Greenfield,Natalie 1352 1:07:13.5 1:07:13.5 21:41 F 6 Santa Monica CA
748 Gaeta,Isabella 1016 1:07:14.6 1:07:14.6 21:42 F 7 Santa Monica CA
749 Sun,Caden 992 1:07:27.7 1:07:27.7 21:46 M 4 Los Angeles CA
750 Rothenberg,Ava 1030 1:07:36.2 1:07:36.2 21:48 F 6 Santa Monica CA
751 Cosby,Charlie 1262 1:07:40.6 1:07:40.6 21:50 F 7 Santa Monica CA
752 Jih,Nathan 1096 1:07:59.1 1:07:59.1 21:56 M 7 Highland CA
753 Jih,Ryan 1095 1:08:01.0 1:08:01.0 21:56 M 5 Highland CA
754 Levy,Lena 1264 1:08:11.9 1:08:11.9 22:00 F 6 Santa Monica CA
755 Ota,Rhys 1035 1:08:40.7 1:08:40.7 22:09 M 4 Rancho Palos Verdes CA
756 Berghoff,Corbin 963 1:08:57.4 1:08:57.4 22:15 M 5 Los Angeles CA
757 Peterson,Aubree 964 1:08:57.8 1:08:57.8 22:15 F 11 Los Angeles CA
758 Oneill,Molly 994 1:09:53.9 1:09:53.9 22:33 F 6 Santa Monica CA
759 Demery,Jones 1261 1:10:41.4 1:10:41.4 22:48 M 3
760 Rimpson,Luke 1267 1:17:17.5 1:17:17.5 24:56 M 7 Los Angeles CA